Theta_e
313 314 315 317 317 316 316 316 315 315 315 316 314 314 315 314 312 312 311 312 312 312 313 313 312 312 314 312 311 308 313 314 313 311 313 307 310 304 301 304 302 302 301 300 301
310 311 312 312 314 315 316 315 315 315 315 316 314 315 315 314 315 311 311 311 312 312 312 312 311 312 311 312 310 311 312 314 310 308 311 308 309 306 306 304 303 300 297 297 298
309 309 309 310 311 312 313 314 314 315 314 314 315 315 313 314 315 311 312 311 311 312 312 312 311 311 312 312 311 309 310 312 312 310 309 309 308 304 306 307 306 304 298 296 296
311 310 309 309 309 310 311 312 313 313 314 314 315 314 313 314 315 313 312 311 311 312 312 311 310 311 312 313 310 313 311 310 312 311 309 310 304 306 304 309 303 301 298 296 295
313 311 310 309 309 308 309 310 311 312 313 313 315 314 314 314 312 313 313 311 311 312 310 309 311 310 314 311 310 312 311 310 310 309 309 305 307 308 304 303 299 297 296 296 296
313 313 311 310 309 308 308 308 309 311 312 313 314 314 314 314 313 313 311 311 310 311 309 309 310 309 310 312 311 309 311 310 309 309 308 309 307 307 305 297 297 296 297 296 295
314 313 313 311 310 309 308 308 308 310 311 314 314 314 313 311 313 312 310 310 309 310 309 309 310 310 309 310 309 308 311 308 308 308 309 306 308 307 304 297 298 296 296 295 295
314 314 313 312 310 309 308 307 308 309 312 314 313 315 311 313 312 311 310 309 309 310 310 309 309 308 309 307 307 310 308 312 310 307 308 307 312 309 300 298 300 296 295 295 294
314 313 312 312 311 309 308 307 309 312 314 311 314 314 312 312 312 312 309 309 309 309 309 310 308 307 307 310 310 308 311 311 310 306 308 307 311 308 299 298 301 297 296 295 295
313 312 312 311 311 309 308 308 311 313 313 313 312 313 310 312 312 312 309 308 308 309 311 310 306 309 306 309 311 308 311 309 310 308 306 307 307 308 303 299 302 301 297 295 295
312 312 311 310 310 309 308 312 308 305 309 311 310 310 311 313 313 310 308 309 309 310 311 309 311 311 310 309 310 310 311 310 307 305 307 305 307 309 308 301 302 300 297 296 296
311 311 311 311 311 308 309 307 308 307 308 307 305 306 309 312 312 310 307 308 309 309 309 310 312 309 309 308 309 308 309 307 306 304 304 305 306 307 306 308 307 304 300 297 297
311 310 310 311 312 308 309 308 309 309 308 307 307 309 310 311 310 310 305 306 308 308 309 310 311 307 309 308 308 307 307 307 308 304 302 301 303 303 303 303 303 303 301 298 298
311 310 310 311 309 311 309 308 308 309 301 303 307 311 311 309 311 306 305 306 309 308 307 310 308 309 308 309 307 310 305 306 306 305 308 303 310 305 305 306 305 305 300 300 297
311 311 310 311 312 308 309 307 308 303 303 304 309 307 307 309 306 307 305 307 308 309 309 311 307 307 309 309 305 309 303 304 304 304 302 304 305 306 301 305 307 306 301 299 296
312 311 310 310 312 311 308 306 305 303 305 305 309 309 309 308 307 306 306 304 306 309 307 308 304 305 307 303 304 302 304 301 298 300 306 307 307 305 304 305 305 304 302 299 295
313 312 311 310 311 309 307 305 303 301 303 305 310 308 309 309 308 307 306 307 308 311 311 310 306 304 304 307 304 304 307 311 309 307 311 300 303 308 306 303 304 307 303 297 294
314 313 311 310 311 312 306 307 305 303 302 309 311 309 310 308 309 307 307 307 305 308 308 311 311 304 303 307 308 303 307 311 307 307 308 299 306 308 302 305 301 299 297 293 292
314 313 312 310 310 312 303 308 303 305 303 305 310 312 311 310 309 307 306 307 307 308 312 310 310 301 301 301 303 304 306 305 306 287 301 307 305 304 302 301 299 298 293 293 292
313 312 312 311 310 311 303 306 304 304 303 307 305 307 306 310 308 308 307 306 309 306 308 311 312 302 298 298 297 302 300 306 305 308 305 308 307 308 306 305 303 301 299 295 292
313 313 312 311 311 312 313 307 304 305 305 306 305 304 305 307 309 307 309 307 306 307 306 308 312 307 300 301 302 300 301 300 303 305 307 308 310 303 305 304 304 303 299 296 293
313 315 308 310 314 312 310 307 307 306 304 305 304 304 303 306 307 307 308 309 305 304 308 306 310 314 311 298 296 300 303 303 307 306 301 303 310 306 305 303 301 302 298 295 292
314 314 306 310 314 313 307 306 307 306 305 306 307 306 305 304 307 306 306 305 304 305 306 305 309 313 312 302 298 300 299 300 301 302 307 307 309 304 301 301 299 300 295 294 292
313 313 308 308 311 313 312 310 309 306 307 305 305 305 307 306 307 307 306 306 303 306 306 308 309 313 311 308 302 302 299 301 304 308 309 308 308 308 308 306 303 299 294 294 292
315 312 306 309 310 312 311 310 312 309 306 305 306 306 307 307 307 307 306 305 302 303 305 306 311 311 312 311 306 304 304 302 303 305 307 308 307 307 308 307 306 306 305 302 291
317 313 309 310 309 311 312 312 311 313 308 308 307 306 306 307 307 308 307 306 308 299 302 301 310 310 310 309 309 309 307 308 306 305 305 306 306 306 306 306 306 306 305 304 300
314 314 311 311 311 311 311 311 312 311 311 308 308 308 307 306 307 307 307 306 307 307 302 302 305 304 311 309 307 307 308 309 308 308 308 309 308 307 306 306 306 305 305 304 303
Wind_Speed
14 15 17 18 20 21 21 21 21 21 23 16 8 5 3 4 2 3 2 2 2 2 2 4 3 5 5 3 3 3 4 1 4 5 3 3 3 2 1 4 3 5 3 1 23
14 15 16 18 19 20 21 21 21 22 21 19 13 7 5 4 4 3 3 1 1 1 2 2 2 4 3 2 2 4 3 6 4 4 2 4 4 6 3 3 5 4 3 6 32
13 14 15 17 18 19 20 21 22 21 20 21 13 9 4 5 2 5 4 0 1 1 3 3 4 3 3 1 1 2 5 4 3 4 2 4 2 5 6 5 10 9 8 15 20
14 14 16 16 17 18 19 20 22 22 21 20 12 8 2 1 4 4 4 1 1 1 3 4 4 3 3 2 1 1 1 3 2 3 4 4 6 4 8 6 1 6 16 19 18
14 15 16 17 18 18 19 20 21 22 21 19 9 5 1 2 6 4 4 2 1 1 5 3 3 3 3 3 2 2 2 2 3 3 3 5 6 6 9 9 1 7 14 17 18
15 16 17 19 19 19 20 21 22 22 21 17 8 3 2 4 3 4 4 4 1 3 3 3 4 3 5 2 3 3 2 4 3 2 2 4 2 0 3 5 6 9 15 15 17
18 18 18 20 21 22 22 21 22 23 22 13 6 4 3 11 5 4 4 5 2 3 4 3 5 1 5 3 1 2 3 5 4 2 4 4 8 10 4 5 8 11 11 13 17
19 20 19 20 21 24 25 24 23 23 17 7 3 4 6 3 5 5 6 5 4 6 7 6 5 5 2 4 5 2 3 1 3 4 1 5 10 8 6 8 11 11 11 14 16
20 20 20 21 23 25 27 26 26 16 5 1 3 4 7 3 4 6 5 5 6 6 6 6 4 3 3 4 4 5 4 4 7 8 2 6 10 6 5 7 11 11 13 14 12
19 20 20 19 20 22 26 25 13 3 2 3 2 2 1 3 4 6 6 7 3 5 3 4 5 3 3 3 6 6 4 5 6 4 4 5 17 18 7 9 17 14 13 14 16
18 19 21 17 16 19 23 8 6 4 2 6 3 3 2 1 3 3 4 6 3 4 5 2 2 8 12 8 2 3 4 7 4 4 4 9 17 20 20 9 16 15 12 16 21
17 18 20 17 14 13 8 5 2 2 7 5 5 5 6 4 2 4 7 6 4 7 5 3 11 9 5 4 4 3 3 7 7 2 6 8 18 15 17 21 16 18 13 16 13
16 17 19 17 12 4 4 3 2 0 2 8 5 4 3 8 6 5 11 4 5 6 7 8 4 5 7 4 6 5 6 5 8 4 4 7 9 7 7 9 13 13 11 13 17
15 15 16 16 4 5 2 2 1 1 2 7 4 4 3 5 4 1 6 4 2 10 9 7 2 6 4 6 8 5 6 3 2 2 4 3 15 4 7 10 9 12 10 14 14
14 13 11 9 11 2 2 1 1 1 6 4 3 1 1 4 5 1 0 1 7 7 7 7 7 5 5 8 9 7 3 4 1 3 3 4 5 4 3 8 18 10 9 10 12
11 11 8 6 5 4 3 1 2 4 8 4 4 5 3 2 1 2 1 4 1 4 3 5 1 6 6 3 1 5 4 4 3 2 2 8 10 5 6 9 8 9 7 7 8
14 11 9 7 3 2 2 1 2 6 3 4 4 4 2 6 4 6 6 5 6 4 6 1 5 3 3 4 3 3 5 4 5 2 9 5 4 13 6 10 12 14 8 6 6
19 14 13 12 7 6 3 4 9 6 8 3 4 2 5 6 4 6 5 4 7 2 3 5 8 9 6 7 7 6 8 6 9 5 20 4 9 10 16 16 7 6 7 5 7
21 19 15 19 17 6 3 6 10 9 8 9 3 4 5 4 5 5 9 6 9 15 10 7 9 2 1 2 3 5 6 3 2 2 5 6 13 6 6 12 5 12 6 10 9
24 15 17 24 23 10 2 18 8 9 8 5 14 11 10 8 9 9 10 6 6 16 7 2 5 1 3 3 0 5 4 3 1 3 7 17 28 18 11 15 11 11 15 11 7
19 4 9 32 26 4 8 9 6 7 7 8 10 7 9 10 10 8 8 5 8 6 7 5 5 3 2 9 12 3 3 1 2 4 6 13 16 5 8 10 12 12 8 9 9
8 5 15 41 9 5 14 9 10 7 6 11 6 11 12 9 8 7 11 10 9 8 11 7 5 8 15 1 2 3 9 10 6 7 4 2 29 3 1 9 8 8 7 6 8
3 4 20 26 7 11 3 4 4 5 10 11 12 8 7 8 7 9 11 6 10 10 10 9 2 3 10 2 3 6 7 6 2 2 19 6 27 6 4 7 9 9 9 9 9
3 4 2 6 9 11 16 11 9 6 18 4 5 7 4 5 12 9 5 2 4 4 3 11 7 11 20 18 5 6 8 19 19 15 16 28 36 37 36 19 11 8 10 13 11
5 4 7 7 16 19 13 8 20 9 7 13 8 24 17 13 14 18 14 7 2 3 3 11 12 18 24 30 9 3 10 16 19 30 21 35 22 34 40 21 27 19 22 16 10
6 4 4 4 14 24 20 18 26 22 11 9 19 12 23 25 24 24 19 12 9 0 5 2 17 14 23 27 21 18 25 26 27 35 28 30 31 44 32 25 27 28 26 20 17
10 9 4 10 14 13 20 28 31 25 18 21 20 19 17 27 29 26 15 8 11 10 9 7 5 7 25 21 7 4 34 29 27 37 26 30 44 39 28 24 28 24 24 24 20
Wind_Direction
13 13 12 11 10 9 11 11 12 10 6 358 354 261 264 345 337 226 220 147 122 1 16 162 81 133 109 76 68 137 70 210 234 159 244 159 152 26 47 124 230 200 177 263 172
2 2 2 2 1 1 0 2 4 3 2 357 347 327 250 280 300 264 192 147 89 59 128 122 99 124 60 93 21 89 114 217 192 205 254 184 186 169 167 171 241 251 212 164 162
356 355 353 352 352 352 351 351 352 356 356 356 344 336 292 265 324 222 187 234 330 359 84 97 102 110 88 90 20 186 166 208 227 213 192 165 214 162 161 230 221 208 166 166 169
348 349 349 346 343 342 342 342 343 346 347 349 340 332 317 176 234 177 180 187 360 44 71 68 43 69 93 114 290 164 196 201 266 184 153 196 132 222 201 231 99 213 170 169 179
338 337 338 339 337 334 335 335 335 337 339 341 331 317 288 336 263 195 200 207 141 179 62 91 62 137 134 149 148 164 239 218 277 266 224 144 231 234 239 239 160 149 165 182 187
330 330 332 332 330 329 329 330 328 329 331 332 316 270 149 238 200 201 220 208 190 149 98 75 159 186 110 122 146 181 263 276 293 260 242 230 279 236 237 138 165 170 190 191 192
327 326 325 327 328 328 326 326 324 321 324 321 294 217 136 236 200 203 195 188 148 157 121 121 134 144 137 128 151 125 316 320 222 210 239 169 286 230 203 173 193 203 200 198 204
325 323 321 320 323 327 325 324 321 316 315 305 232 183 238 229 202 189 159 130 112 99 110 120 119 106 81 123 32 81 61 37 212 159 221 152 266 266 163 169 226 215 209 205 208
322 321 317 319 324 329 325 326 317 317 311 210 178 167 265 187 193 190 182 169 130 93 86 101 72 88 51 94 6 1 249 223 300 198 143 182 272 236 156 205 243 222 216 211 212
319 322 319 319 321 327 327 327 316 328 106 124 95 24 228 225 162 172 161 156 123 117 78 54 54 79 41 99 236 225 245 251 240 221 207 210 255 271 223 213 243 233 217 210 214
316 319 322 321 324 331 335 339 8 346 22 196 197 232 233 185 181 171 160 136 106 71 176 12 124 213 212 203 183 163 197 237 245 231 206 232 249 258 272 234 252 243 214 212 221
312 317 320 325 332 331 341 72 145 163 308 268 242 273 231 183 248 222 171 158 156 197 129 45 234 200 144 164 167 166 213 259 284 262 198 272 262 259 255 258 250 249 227 222 222
304 315 320 325 332 344 30 101 117 87 232 291 213 205 202 168 217 230 157 145 160 176 189 181 219 109 138 158 165 205 194 226 234 338 254 313 268 236 274 248 265 245 224 214 213
298 310 321 330 301 347 65 59 108 133 22 266 242 259 117 138 260 167 185 147 186 207 166 233 230 158 162 216 152 236 208 204 289 36 251 360 296 243 245 269 256 259 204 221 209
287 299 317 322 306 257 161 108 3 160 290 265 196 90 102 172 129 254 181 63 184 182 138 237 163 161 185 220 162 226 121 137 147 213 26 255 270 233 13 265 263 266 223 220 210
285 288 295 283 275 272 275 189 111 41 248 284 149 170 149 206 186 116 136 48 110 144 253 255 343 172 199 69 134 137 98 68 65 105 243 224 202 165 182 212 256 267 240 213 208
268 258 246 235 205 349 222 124 44 194 299 243 220 168 188 187 203 175 168 180 176 126 233 258 208 172 159 103 28 94 67 321 312 329 253 140 211 259 229 232 221 237 245 216 215
243 234 230 228 224 225 144 64 223 194 199 106 122 101 207 159 219 172 145 220 233 114 122 190 266 180 182 199 180 170 168 168 250 263 290 141 245 274 223 242 234 248 251 233 227
225 214 211 216 211 208 133 207 214 179 194 167 117 174 230 238 195 153 205 206 206 174 192 185 267 89 26 112 140 179 187 167 92 121 296 242 263 288 221 258 261 252 231 242 231
197 204 212 213 190 164 112 234 211 195 151 155 204 184 203 199 175 189 179 193 214 197 193 233 294 240 154 145 21 183 162 92 356 256 260 270 276 270 216 236 239 246 238 227 236
193 214 203 194 166 174 219 226 221 217 172 173 213 235 213 194 196 203 221 224 200 178 173 149 157 219 121 209 176 136 211 224 187 158 205 276 283 183 186 201 217 235 230 214 217
172 211 173 164 178 202 222 188 180 209 203 235 192 215 214 191 216 225 218 223 147 146 158 199 169 229 241 95 359 179 193 174 193 238 238 137 271 346 61 214 218 234 205 223 224
211 215 175 181 204 208 251 302 240 206 205 196 216 192 188 195 238 194 230 177 149 157 168 172 227 312 275 332 6 211 197 219 319 311 232 198 261 136 123 200 207 217 233 232 226
177 169 188 208 236 227 214 217 228 216 236 205 214 182 161 231 227 255 216 147 168 179 73 161 168 209 241 260 134 194 205 218 220 243 239 235 257 276 265 269 251 240 235 227 218
201 181 185 187 225 229 231 215 227 217 221 202 241 230 220 237 239 243 256 244 163 197 168 175 227 218 247 261 251 237 245 221 217 239 232 253 249 258 269 267 270 264 268 265 216
238 175 145 226 221 220 214 224 236 239 176 216 229 218 223 230 232 251 236 236 207 94 183 203 246 232 249 256 259 250 253 257 248 250 259 263 263 258 275 283 283 276 275 271 251
244 225 187 179 206 205 218 223 230 235 241 233 226 228 221 226 224 238 254 224 217 222 195 183 204 226 253 256 241 219 245 259 266 265 260 268 264 271 270 267 261 265 268 266 265